Stations météo

réclame
Mon MeteoGroup
Manresa, Espagne (8174): Température de l'air & dewpoint: 12.02.2019 01:00:00 - 18.02.2019 01:00:00 (CET)Manresa, Espagne (8174): Vitesse du vent & gusts: 12.02.2019 01:00:00 - 18.02.2019 01:00:00 (CET)Manresa, Espagne (8174): Direction du vent: 12.02.2019 01:00:00 - 18.02.2019 01:00:00 (CET)Manresa, Espagne (8174): reduced air pressure: 12.02.2019 01:00:00 - 18.02.2019 01:00:00 (CET)Manresa, Espagne (8174): visibility: 12.02.2019 01:00:00 - 18.02.2019 01:00:00 (CET)Manresa, Espagne (8174): Ensoleillement: 12.02.2019 01:00:00 - 18.02.2019 01:00:00 (CET)Manresa, Espagne (8174): Quantités de précipitations: 12.02.2019 01:00:00 - 18.02.2019 01:00:00 (CET)
Date & Time tt [°C] td [°C] ff [km/h] ff [knt] fx [km/h] fx [knt] dd ppp [hPa] vv [km] sd [min] rr [mm]
18.02.2019 01:00:00 - - - - - - - - - - -
18.02.2019 00:00:00 4,8 2,1 3 2 7 4 NNW 1026,6 10 0 0,0
17.02.2019 23:00:00 5,7 3,9 3 2 6 3 ENE 1026,4 10 0 0,0
17.02.2019 22:00:00 7,8 5,5 4 2 13 7 S 1025,8 4,4 0 0,0
17.02.2019 21:00:00 8,5 5,3 5 3 13 7 SSW 1025,3 12 0 0,0
17.02.2019 20:00:00 9,7 4,6 8 5 20 11 SSW 1024,8 20 0 0,0
17.02.2019 19:00:00 11,4 4,3 11 6 25 13 S 1024,0 20 3 -
17.02.2019 18:00:00 13,5 4,3 13 7 26 14 S 1023,6 20 60 0,0
17.02.2019 17:00:00 15,6 0,6 11 6 24 13 S 1023,4 20 60 0,0
17.02.2019 16:00:00 16,4 -3,6 11 6 23 12 S 1023,7 20 60 0,0
17.02.2019 15:00:00 16,0 -2,5 13 7 25 13 S 1024,1 20 60 0,0
17.02.2019 14:00:00 15,2 -2,7 11 6 19 11 S 1025,1 20 60 0,0
17.02.2019 13:00:00 12,0 -4,8 4 2 7 4 W 1026,6 20 60 -
17.02.2019 12:00:00 8,0 -3,9 3 2 8 4 NE 1028,2 20 60 0,0
17.02.2019 11:00:00 4,6 -4,2 3 2 6 3 NNE 1029,2 20 60 0,0
17.02.2019 10:00:00 1,2 -4,2 3 2 7 4 ENE 1030,2 20 60 0,0
17.02.2019 09:00:00 -1,9 -4,5 4 2 6 3 NE 1030,8 20 4 0,0
17.02.2019 08:00:00 -2,9 -5,1 4 2 5 3 NNE 1030,6 20 0 0,0
17.02.2019 07:00:00 -2,6 -4,8 3 1 6 3 N 1030,5 20 0 -
17.02.2019 06:00:00 -2,2 -4,5 4 2 6 3 NNE 1030,4 20 0 0,0
17.02.2019 05:00:00 -1,6 -4,5 3 2 5 3 W 1030,1 20 0 0,0
17.02.2019 04:00:00 -1,2 -4,5 3 2 5 3 NNE 1030,2 20 0 0,0
17.02.2019 03:00:00 -0,2 -3,9 2 1 6 3 NNE 1030,4 20 0 0,0
17.02.2019 02:00:00 0,7 -3,6 3 1 7 4 NNE 1030,7 20 0 0,0
17.02.2019 01:00:00 1,5 -3,6 3 2 5 3 NNE 1030,8 20 0 -
17.02.2019 00:00:00 3,1 -2,7 2 1 6 3 NNW 1030,5 20 0 0,0
16.02.2019 23:00:00 4,0 -2,7 2 1 5 3 N 1030,5 20 0 0,0
16.02.2019 22:00:00 5,7 -0,7 3 2 6 3 NNE 1030,0 14 0 0,0
16.02.2019 21:00:00 7,8 -0,3 3 1 4 2 W 1029,3 20 0 0,0
16.02.2019 20:00:00 10,4 0,6 1 1 20 11 ESE 1028,7 19 0 0,0
16.02.2019 19:00:00 13,4 0,0 9 5 23 12 S 1028,0 20 13 -
16.02.2019 18:00:00 16,2 -1,0 9 5 20 11 S 1027,3 20 60 0,0
16.02.2019 17:00:00 18,8 -8,6 8 4 14 8 S 1027,1 20 60 0,0
16.02.2019 16:00:00 19,0 -10,3 5 3 13 7 SSE 1027,6 20 60 0,0
16.02.2019 15:00:00 19,1 -7,5 5 3 9 5 SSW 1028,2 20 60 0,0
16.02.2019 14:00:00 16,2 -2,5 3 2 8 4 SW 1029,5 18 60 0,0
16.02.2019 13:00:00 12,0 -5,1 3 2 6 4 NNE 1031,0 20 60 -
16.02.2019 12:00:00 8,7 -3,3 3 1 7 4 NE 1032,2 20 60 0,0
16.02.2019 11:00:00 5,2 -2,7 3 2 7 4 W 1033,0 20 60 0,0
16.02.2019 10:00:00 1,6 -3,6 4 2 6 3 NNE 1033,5 20 60 0,0
16.02.2019 09:00:00 -1,7 -4,5 5 3 8 5 NNE 1033,9 20 2 0,0
16.02.2019 08:00:00 -3,0 -4,8 2 1 6 3 N 1033,3 20 0 0,0
16.02.2019 07:00:00 -2,2 -4,5 5 3 7 4 NNE 1032,8 18 0 -
16.02.2019 06:00:00 -2,3 -4,5 3 1 6 4 NNE 1032,7 14 0 0,0
16.02.2019 05:00:00 -1,6 -4,5 3 2 11 6 NNE 1032,2 20 0 0,0
16.02.2019 04:00:00 -1,3 -4,2 3 1 5 3 W 1032,3 20 0 0,0
16.02.2019 03:00:00 -0,5 -3,9 4 2 6 4 NNE 1032,3 19 0 0,0
16.02.2019 02:00:00 0,5 -3,9 3 2 8 5 NNE 1032,3 20 0 0,0
16.02.2019 01:00:00 1,2 -3,6 3 2 5 3 NNE 1032,1 20 0 -
16.02.2019 00:00:00 2,6 -3,3 3 2 8 4 NNE 1031,7 20 0 0,0
15.02.2019 23:00:00 3,8 -3,0 4 2 8 5 NNE 1031,3 20 0 0,0
15.02.2019 22:00:00 5,1 -2,2 3 2 8 5 NNE 1031,0 20 0 0,0
15.02.2019 21:00:00 6,8 -3,3 3 2 6 3 NNE 1030,3 20 0 0,0
15.02.2019 20:00:00 9,8 0,4 3 1 10 6 SW 1029,6 20 0 0,0
15.02.2019 19:00:00 12,7 -0,3 9 5 17 9 S 1028,7 20 12 -
15.02.2019 18:00:00 15,2 -3,6 8 4 18 10 S 1027,9 20 60 0,0
15.02.2019 17:00:00 17,0 -9,0 8 5 17 9 S 1027,8 20 60 0,0
15.02.2019 16:00:00 17,2 -8,2 8 4 16 9 S 1028,1 20 60 0,0
15.02.2019 15:00:00 17,1 -4,8 6 3 12 7 SSW 1028,5 20 60 0,0
15.02.2019 14:00:00 14,3 -3,6 5 3 10 5 NE 1029,8 20 60 0,0
15.02.2019 13:00:00 11,2 -1,0 2 1 8 4 SW 1031,4 20 60 -
15.02.2019 12:00:00 7,3 -2,7 4 2 7 4 NNE 1033,0 20 60 0,0
15.02.2019 11:00:00 4,4 -2,0 3 2 6 4 WSW 1033,6 20 60 0,0
15.02.2019 10:00:00 1,5 -2,2 2 1 5 3 N 1034,3 12 59 0,0
15.02.2019 09:00:00 -1,5 -2,7 4 2 6 3 ENE 1034,7 8 2 0,0
15.02.2019 08:00:00 -2,4 -3,6 3 1 5 3 N 1034,4 12 0 0,0
15.02.2019 07:00:00 -2,3 -3,3 2 1 5 3 N 1034,0 9 0 -
15.02.2019 06:00:00 -1,9 -3,3 3 2 9 5 NNE 1033,9 7 0 0,0
15.02.2019 05:00:00 -1,5 -2,7 3 2 7 4 NNE 1033,4 7 0 0,0
15.02.2019 04:00:00 -0,6 -2,0 5 3 7 4 NNE 1033,3 8 0 0,0
15.02.2019 03:00:00 -0,2 -2,2 3 2 6 3 N 1033,5 12 0 0,0
15.02.2019 02:00:00 0,7 -1,7 4 2 8 4 NNE 1033,7 12 0 0,0
15.02.2019 01:00:00 1,7 -1,0 3 1 7 4 NNE 1033,7 17 0 -
15.02.2019 00:00:00 2,4 -0,5 2 1 7 4 NNE 1033,7 16 0 0,0
14.02.2019 23:00:00 4,0 1,3 5 3 7 4 NNE 1033,4 18 0 0,0
14.02.2019 22:00:00 5,8 2,9 3 1 7 4 NNE 1032,8 17 0 0,0
14.02.2019 21:00:00 7,7 3,4 4 2 15 8 S 1032,4 20 0 0,0
14.02.2019 20:00:00 9,4 3,9 8 4 22 12 SSW 1032,1 20 0 0,0
14.02.2019 19:00:00 11,0 4,3 12 7 21 12 S 1031,5 20 11 -
14.02.2019 18:00:00 13,5 -0,5 11 6 21 12 S 1031,1 20 60 0,0
14.02.2019 17:00:00 15,1 -2,0 12 7 24 13 S 1031,1 20 60 0,0
14.02.2019 16:00:00 16,3 -4,8 10 5 18 10 S 1031,4 20 60 0,0
14.02.2019 15:00:00 16,1 -3,6 6 4 14 8 S 1032,1 20 60 0,0
14.02.2019 14:00:00 14,0 -3,0 3 2 9 5 S 1033,5 20 60 0,0
14.02.2019 13:00:00 9,9 1,3 2 1 7 4 WSW 1035,1 14 60 -
14.02.2019 12:00:00 6,1 0,2 3 2 8 4 N 1036,8 14 60 0,0
14.02.2019 11:00:00 2,6 -0,3 4 2 8 5 WNW 1037,7 7 60 0,0
14.02.2019 10:00:00 -0,7 -1,4 4 2 8 5 NE 1038,5 2,1 18 0,0
14.02.2019 09:00:00 -1,6 -2,2 4 2 7 4 ENE 1038,6 1,7 0 0,0
14.02.2019 08:00:00 -0,9 -1,2 3 2 8 4 NE 1038,1 2,7 0 0,0
14.02.2019 07:00:00 -1,7 -2,5 5 3 11 6 NNE 1038,0 1,0 0 -
14.02.2019 06:00:00 -0,8 -2,2 6 4 11 6 ENE 1037,9 10 0 0,0
14.02.2019 05:00:00 -0,5 -1,4 4 2 7 4 N 1037,3 5 0 0,0
14.02.2019 04:00:00 -0,5 -1,4 2 1 5 3 NE 1037,1 6 0 0,0
14.02.2019 03:00:00 0,0 -1,2 1 1 5 3 W 1037,2 9 0 0,0
14.02.2019 02:00:00 1,0 -0,3 2 1 8 4 N 1036,8 5 0 0,0
14.02.2019 01:00:00 1,9 0,4 5 3 8 5 NNE 1036,3 10 0 -
14.02.2019 00:00:00 2,7 0,9 3 2 5 3 NNE 1035,8 9 0 0,0
13.02.2019 23:00:00 4,1 1,7 1 1 4 2 NNE 1035,1 15 0 0,0
13.02.2019 22:00:00 5,9 3,6 2 1 5 3 W 1034,5 11 0 0,0
13.02.2019 21:00:00 7,4 4,1 2 1 8 4 SSW 1033,8 18 0 0,0
13.02.2019 20:00:00 9,3 4,1 4 2 15 8 SW 1033,3 20 0 0,0
13.02.2019 19:00:00 11,0 3,8 8 5 22 12 S 1032,4 20 8 -
13.02.2019 18:00:00 13,0 3,4 12 6 25 13 S 1031,6 20 60 0,0
13.02.2019 17:00:00 14,4 3,8 14 8 27 15 S 1031,3 20 60 0,0
13.02.2019 16:00:00 15,7 1,1 12 7 23 13 S 1031,0 20 60 0,0
13.02.2019 15:00:00 15,3 0,0 11 6 23 12 S 1031,2 20 60 0,0
13.02.2019 14:00:00 14,6 1,1 11 6 20 11 S 1031,8 20 60 0,0
13.02.2019 13:00:00 - - - - - - - - - - -
13.02.2019 12:00:00 8,5 -0,3 3 2 9 5 SW 1033,9 20 60 0,0
13.02.2019 11:00:00 5,2 -0,7 3 1 6 4 SW 1034,4 20 60 0,0
13.02.2019 10:00:00 1,6 -1,7 1 1 8 4 N 1034,9 11 60 0,0
13.02.2019 09:00:00 -1,7 -3,0 2 1 9 5 W 1035,3 8 0 0,0
13.02.2019 08:00:00 -2,0 -3,3 6 3 9 5 NE 1034,4 8 0 0,0
13.02.2019 07:00:00 -2,2 -3,3 2 1 8 4 NNW 1034,0 10 0 -
13.02.2019 06:00:00 -1,4 -2,7 3 2 9 5 NE 1033,5 7 0 0,0
13.02.2019 05:00:00 -1,2 -2,5 4 2 9 5 NNE 1033,3 12 0 0,0
13.02.2019 04:00:00 -0,9 -2,5 5 3 7 4 NNE 1033,0 6 0 0,0
13.02.2019 03:00:00 -0,5 -2,2 4 2 10 5 NNE 1033,1 14 0 0,0
13.02.2019 02:00:00 0,5 -1,7 6 3 9 5 NNE 1033,3 9 0 0,0
13.02.2019 01:00:00 1,1 -1,4 2 1 10 5 N 1033,5 15 0 -
13.02.2019 00:00:00 1,9 -1,0 5 3 9 5 NNE 1033,5 19 0 0,0
12.02.2019 23:00:00 2,8 -1,0 2 1 10 5 NNW 1033,6 20 0 0,0
12.02.2019 22:00:00 4,6 -0,5 6 3 10 6 NE 1033,1 20 0 0,0
12.02.2019 21:00:00 6,5 -0,5 4 2 7 4 NE 1032,6 20 0 0,0
12.02.2019 20:00:00 8,0 -1,2 3 1 9 5 W 1032,2 20 0 0,0
12.02.2019 19:00:00 9,9 -1,2 5 3 14 7 W 1031,4 20 7 -
12.02.2019 18:00:00 12,2 -1,4 8 5 20 11 W 1030,6 20 60 0,0
12.02.2019 17:00:00 13,7 -1,2 12 6 27 14 W 1030,3 20 60 0,0
12.02.2019 16:00:00 15,1 -0,7 10 5 18 10 WNW 1030,1 20 60 0,0
12.02.2019 15:00:00 13,3 0,0 6 4 12 7 NE 1030,7 20 60 0,0
12.02.2019 14:00:00 11,9 0,6 3 2 11 6 NE 1031,8 20 60 0,0
12.02.2019 13:00:00 - - - - - - - - - - -
12.02.2019 12:00:00 7,8 1,9 7 4 11 6 NE 1033,7 20 60 0,0
12.02.2019 11:00:00 5,4 0,9 6 3 12 6 NNE 1034,3 16 60 0,0
12.02.2019 10:00:00 2,7 0,0 8 4 10 6 NE 1034,6 13 59 0,0
12.02.2019 09:00:00 -0,3 -1,4 4 2 11 6 NE 1034,7 11 0 0,0
12.02.2019 08:00:00 -0,2 -1,2 4 2 16 8 NNE 1033,9 9 0 0,0
12.02.2019 07:00:00 -0,5 -1,4 2 1 9 5 E 1033,4 12 0 -
12.02.2019 06:00:00 0,4 -1,2 4 2 11 6 N 1032,9 13 0 0,0
12.02.2019 05:00:00 0,4 -2,0 4 2 6 4 SSW 1032,2 20 0 0,0
12.02.2019 04:00:00 1,2 -1,0 5 3 11 6 NE 1032,3 18 0 0,0
12.02.2019 03:00:00 1,6 -0,5 4 2 10 6 NNE 1032,5 11 0 0,0
12.02.2019 02:00:00 2,1 -1,2 3 1 9 5 NNE 1032,4 20 0 0,0
12.02.2019 01:00:00 3,0 0,2 4 2 10 6 NNE 1032,0 20 0 -

tt = Température de l'air
td = dewpoint
ff = Vitesse du vent
fx = gusts
dd = Direction du vent
ppp = reduced air pressure
vv = visibility
sd = Ensoleillement
rr = Quantités de précipitations

stations d'obs. à proximité